Location: Cr�chy
(46.2611°N, 3.4222°E)
Time: 23:17:04
(UTC+00:00)

Daily predictions for brighter satellites

Satellite Brightness Start Highest point End
(mag) Time Altitude Azimuth Time Altitude Azimuth Time Altitude Azimuth
Cosmos 1782 Rocket 4.4 16:30:39 10° NNE 16:34:24 27° ENE 16:38:06 10° SE
Lacrosse 5 rocket 2.7 16:31:34 10° W 16:35:20 29° NNW 16:38:55 10° NE
Cosmos 2333 Rocket 3.6 16:30:12 10° WSW 16:35:28 36° NW 16:40:47 10° NNE
FALCON 9 DEB 3.4 16:32:43 10° WSW 16:36:12 62° NNW 16:39:40 10° NE
STARLINK-46 4.3 16:37:12 10° NW 16:39:11 18° N 16:41:10 10° NE
SL-4 R/B 2.6 16:36:20 10° WNW 16:39:48 36° N 16:43:31 10° ENE
Radarsat Rocket 4.1 16:35:31 10° SSE 16:41:33 83° WSW 16:47:23 10° NNW
Cosmos 1862 Rocket 3.7 16:37:25 10° SSW 16:41:48 79° W 16:46:14 10° N
Lacrosse 5 3.7 16:42:02 10° SSE 16:44:50 15° ESE 16:47:38 10° E
Cosmos 1703 Rocket 4.0 16:41:39 10° SSE 16:45:51 42° E 16:50:06 10° NNE
Okean 1 4.4 16:44:54 10° SE 16:48:07 24° E 16:51:20 10° NE
Cosmos 405 Rocket 4.4 16:49:29 10° NE 16:51:19 13° ENE 16:53:08 10° E
Okean 2 Rocket 4.3 16:48:30 10° NNE 16:51:53 21° ENE 16:55:15 10° ESE
Aureole 1 Rocket 2.2 16:50:49 10° SSW 16:53:50 87° ESE 16:57:20 10° NNE
ATLAS 2AS CENTAUR R/B 4.3 16:47:34 10° W 16:54:19 28° NNW 17:00:56 10° NE
NOAA 12 4.4 16:50:38 10° SE 16:55:37 44° ENE 17:00:36 10° N
STARLINK-60 4.0 16:52:29 10° W 16:55:41 38° NNW 16:58:26 13° NE
BREEZE-M R/B 3.2 16:50:05 10° WNW 16:56:23 60° N 16:59:21 13° E
Cosmos 1980 4.4 16:50:58 10° SW 16:56:29 54° WNW 17:02:03 10° NNE
Sich 1 Rocket 4.1 16:54:53 10° N 16:58:59 36° ENE 17:03:02 10° SE
Cosmos 1441 Rocket 3.1 16:58:32 10° N 17:02:20 68° ENE 17:06:03 10° SSE
H-2A R/B 2.5 17:01:20 10° SSE 17:05:00 70° ENE 17:08:41 10° N
SMAP 3.0 17:01:49 10° SSE 17:06:28 81° ENE 17:11:09 10° NNW
Cosmos 2195 Rocket 4.5 17:02:20 10° S 17:08:29 68° E 17:14:47 10° NNE
Cosmos 2297 3.8 17:03:44 10° NNW 17:09:28 85° WSW 17:15:07 10° SSE
Okean O Rocket 3.5 17:05:46 10° SSW 17:09:43 34° W 17:13:42 10° NNW
Cosmos 1627 Rocket 4.5 17:03:52 10° S 17:09:53 63° E 17:15:58 10° NNE
COBE Rocket 3.7 17:05:47 10° NNE 17:10:28 72° E 17:15:12 10° S
Okean 1-7 3.0 17:06:40 10° S 17:10:59 65° E 17:15:20 10° NNE
STARLINK-52 3.8 17:07:39 10° W 17:11:03 46° NNW 17:13:24 18° NE
Cosmos 1666 3.1 17:09:30 10° NNW 17:13:12 62° W 17:16:52 10° S
CZ-4 R/B 2.3 17:10:48 10° ESE 17:13:55 24° ENE 17:17:02 10° NNE
Cosmos 1867 3.5 17:09:15 10° NW 17:14:44 78° NE 17:20:10 10° SE
USA 215 3.3 17:10:07 13° NE 17:16:06 89° SSE 17:22:38 10° SW
BREEZE-M DEB (TANK) 2.2 17:11:21 10° W 17:16:27 83° S 17:18:32 18° E
Cosmos 1908 Rocket 4.1 17:12:42 10° NNW 17:17:02 62° W 17:21:19 10° S
YAOGAN 6 3.3 17:14:00 10° SE 17:17:11 31° ENE 17:20:24 10° N
Abrixas rocket 2.9 17:15:26 10° SW 17:18:15 36° SSE 17:19:38 22° E
Cosmos 2242 Rocket 4.5 17:14:20 10° SSW 17:18:48 53° WNW 17:23:18 10° N
STARLINK-29 4.0 17:15:54 10° W 17:19:15 40° NNW 17:21:15 20° NE
Cosmos 614 Rocket 3.9 17:16:11 10° SSW 17:21:16 86° ESE 17:26:22 10° NNE
Cosmos 1092 Rocket 4.1 17:16:13 10° S 17:22:30 81° W 17:28:47 10° N
IRS-1C Rocket 4.5 17:17:27 10° S 17:22:41 69° WSW 17:27:58 10° NNW
Cosmos 1300 Rocket 4.3 17:20:07 10° NNE 17:23:53 29° ENE 17:27:38 10° SE
Cosmos 1190 Rocket 3.9 17:18:46 10° SSW 17:23:57 76° ESE 17:29:07 10° NNE
Cosmos 1975 3.1 17:20:41 10° N 17:24:33 45° ENE 17:28:24 10° SSE
COSMO-SKYMED 1 3.2 17:23:33 16° NE 17:26:30 36° E 17:30:29 10° SSE
Cosmos 676 Rocket 4.2 17:22:02 10° S 17:26:59 49° ESE 17:30:53 16° NE
STARLINK-48 4.2 17:24:07 10° SSW 17:27:44 38° SE 17:29:22 25° E
YAOGAN 1 3.3 17:25:40 10° SE 17:29:27 30° ENE 17:33:14 10° N
YAOGAN 3 4.5 17:25:46 10° SSE 17:30:07 78° ENE 17:34:30 10° N
Cosmos 1655 Rocket 4.3 17:24:20 10° SSE 17:30:11 42° E 17:36:01 10° NNE
Cosmos 1954 Rocket 4.1 17:27:22 10° S 17:32:21 51° ESE 17:36:01 18° NE
Meteor 2-9 Rocket 4.3 17:29:10 10° N 17:34:56 56° ENE 17:40:33 10° SSE
Cosmos 921 Rocket 4.0 17:31:32 10° NNW 17:35:43 50° WSW 17:39:56 10° S
Okean-O 2.6 17:32:32 10° SSE 17:36:58 90° NE 17:41:26 10° NNW
Okean 3 3.9 17:33:08 10° SSE 17:37:01 38° E 17:38:35 27° NE
Lacrosse 4 Rocket 3.6 17:35:40 10° N 17:36:09 11° NNE 17:36:09 11° NNE
NOSS 7 (E) 4.4 17:36:04 10° SSW 17:39:38 56° SE 17:40:25 42° ENE
Cosmos 1943 4.0 17:36:33 10° SSE 17:41:24 31° ESE 17:42:49 27° ENE
Cosmos 1656 Rocket 4.4 17:40:40 10° N 17:45:26 29° NE 17:46:04 29° ENE
Cosmos 1140 Rocket 3.5 17:44:53 10° SSW 17:50:01 82° WNW 17:54:14 16° NNE
USA 267 3.3 17:43:55 10° SE 17:50:29 80° SW 17:57:03 10° NW
SKYMED 3 4.5 17:47:53 21° NNE 17:50:39 64° ESE 17:54:57 10° S
Cosmos 2369 Rocket 2.1 17:47:17 10° NNW 17:52:55 67° ENE 17:58:33 10° SE
NOSS 3-1 (C) 4.0 17:45:58 10° NW 17:53:17 62° NE 18:01:10 12° SE
Cosmos 1743 3.6 17:50:11 10° NNW 17:53:58 50° W 17:57:43 10° S
STARLINK-43 3.5 17:52:23 10° WSW 17:56:04 64° NNW 17:56:49 50° NNE
Envisat 3.4 17:52:19 10° S 17:57:21 66° WSW 18:02:26 10° NNW
S3M 3.8 17:51:28 10° N 17:57:40 72° E 18:03:46 10° SSE
Cosmos 2266 Rocket 4.2 17:54:26 10° SSE 18:00:33 49° E 18:05:44 14° NNE
SL-16 R/B 3.1 17:55:53 10° SW 18:01:21 47° WNW 18:06:14 13° NNE
Meteor 1-18 Rocket 4.5 17:56:20 10° SSW 18:02:00 71° WNW 18:07:36 10° N
STARLINK-61 4.4 17:59:44 10° SSW 18:03:14 35° SE 18:03:14 35° SE
Cosmos 468 Rocket 4.1 17:58:37 10° NNW 18:03:39 48° ENE 18:04:48 41° E
Cosmos 2151 Rocket 3.4 17:59:28 10° N 18:03:52 67° E 18:08:13 10° SSE
IRIDIUM 103 4.3 17:58:56 10° SSE 18:03:59 54° E 18:07:13 22° NNE
USA 229 DEB 3.8 17:57:34 10° NW 18:04:47 70° NE 18:10:45 17° SE
USA 229 3.8 17:57:40 10° NW 18:04:52 70° NE 18:10:44 18° SE
STARLINK-67 4.1 18:02:36 10° WNW 18:04:17 32° NW 18:04:17 32° NW
Cosmos 1461 4.2 18:02:03 10° S 18:04:07 23° SSE 18:04:07 23° SSE
USA 81 4.3 18:02:22 10° SSE 18:07:16 44° E 18:07:16 44° E
Cosmos 1553 Rocket 4.2 18:01:19 10° NNW 18:07:43 76° W 18:14:06 10° S
Cosmos 1603 3.7 18:02:58 10° SSW 18:08:38 66° ESE 18:10:51 38° NE
Cosmos 2237 Rocket 4.3 18:04:39 10° W 18:08:50 21° NW 18:13:02 10° N
NOSS 3-1 (A) 4.1 18:03:01 10° NW 18:10:15 56° NE 18:14:13 31° ESE
Cosmos 1943 Rocket 2.3 18:05:40 10° NNW 18:11:19 77° WSW 18:16:52 10° SSE
Uosat 12 SS-18 rocket 4.5 18:10:01 10° NW 18:14:40 63° WSW 18:17:43 18° SSE
SKYMED 2 3.7 18:12:12 25° N 18:14:42 73° WNW 18:19:01 10° SSW
NOAA 15 4.5 18:10:15 10° SSE 18:15:31 90° WSW 18:20:48 10° NNW
Lacrosse 5 rocket 3.3 18:12:43 10° NW 18:15:14 17° N 18:15:14 17° N
Cosmos 1850 Rocket 4.1 18:11:47 10° S 18:16:53 53° ESE 18:16:59 53° E
SL-4 R/B 2.2 18:15:58 10° WNW 18:19:21 60° NNW 18:19:21 60° NNW
STARLINK-80 3.6 18:16:38 10° WSW 18:20:09 66° WNW 18:20:09 66° WNW
CZ-4C R/B 2.0 18:16:58 10° SSW 18:21:54 64° ESE 18:22:34 59° E
IRIDIUM 106 4.2 18:17:03 10° S 18:22:15 79° E 18:25:24 25° N
CSL-04 Rocket 3.6 18:21:40 10° SSE 18:26:56 80° WSW 18:32:18 10° NNW
Lacrosse 5 1.7 18:21:58 10° SW 18:27:03 77° SE 18:27:22 73° E
Cosmos 405 Rocket 3.5 18:24:02 10° NNW 18:27:38 49° W 18:31:14 10° S
Okean 2 Rocket 4.3 18:25:54 10° NNW 18:30:10 43° W 18:34:26 10° SSW
USA 116 4.4 18:30:02 34° N 18:32:22 80° WNW 18:37:13 10° SSW
Meteor 2-4 Rocket 3.8 18:27:41 10° SSW 18:33:33 79° WNW 18:37:10 24° N
Cosmos 883 Rocket 4.4 18:38:01 10° N 18:44:22 86° W 18:50:38 10° S
Gbstr 26 Del rocket 3.7 18:37:44 10° SW 18:44:45 76° SSE 18:45:06 73° ESE
Cosmos 2315 Rocket 3.8 18:40:27 10° N 18:46:49 81° E 18:53:04 10° S
Cosmos 2344 4.3 18:38:26 10° NW 18:48:05 82° NE 18:58:09 21° SE
ATLAS 2AS CENTAUR R/B 4.4 18:42:12 10° NW 18:48:06 22° N 18:49:12 21° NNE
CZ-4 R/B 3.2 18:45:28 10° SSW 18:48:51 29° W 18:52:14 10° NW
Cosmos 1763 Rocket 4.0 18:44:12 10° NNW 18:47:49 47° NNW 18:47:49 47° NNW
Meteor 2-8 Rocket 4.3 18:44:39 10° N 18:50:45 86° W 18:56:49 10° S
USA 215 3.9 18:57:28 39° N 18:58:45 43° NNW 19:04:50 10° W
YAOGAN 1 4.5 19:01:46 10° SSW 19:05:31 28° W 19:09:17 10° NW
Cosmos 1943 4.1 19:19:51 10° SW 19:24:41 44° WNW 19:24:41 44° WNW
CZ-4C R/B 4.5 20:06:09 10° W 20:07:47 18° W 20:07:47 18° W
